Weather History for Kozani, Greece

Change the Weather History Date:

Wednesday, November 2, 2011

  Actual Average Record
Temperature  
Mean Temperature 46 °F -  
Max Temperature 57 °F - - ()
Min Temperature 35 °F - - ()
Degree Days  
Heating Degree Days 19    
Moisture  
Dew Point 33 °F    
Average Humidity 69    
Maximum Humidity 87    
Minimum Humidity 38    
Precipitation  
Precipitation 0.00 in - - ()
Sea Level Pressure  
Sea Level Pressure 30.17 in    
Wind  
Wind Speed 3 mph ()    
Max Wind Speed 7 mph    
Max Gust Speed -    
T = Trace of Precipitation, MM = Missing Value Source: Averaged Metar Reports

Daily Weather History Graph

Daily Weather History Graph

Search for Another Location

Airport:

Trip Planner

Search our weather history database for the weather conditions in past years. The results will help you decide how hot, cold, wet, or windy it might be!

Date:

Astronomy

Nov. 02, 2011 Rise Set
Actual Time 7:02 AM EET 5:29 PM EET
Civil Twilight 6:34 AM EET 5:57 PM EET
Nautical Twilight 6:02 AM EET 6:29 PM EET
Astronomical Twilight 5:30 AM EET 7:01 PM EET
Moon 1:12 PM EET (11/2) 11:56 PM EET (11/2)
Length of Visible Light 11h 22m
Length of Day
10h 26m
Waxing Crescent, 47% of the Moon is Illuminated
Nov 2
Waxing Crescent
Nov 2
First Quarter
Nov 10
Full
Nov 18
Last Quarter
Nov 25
New

Hourly Weather History & Observations

Time (EET) Temp. Windchill Dew Point Humidity Pressure Visibility Wind Dir Wind Speed Gust Speed Precip Events Conditions
12:20 AM 42.8 °F 39.3 °F 33.8 °F 70% 30.18 in - NW 5.8 mph - N/A   Unknown
12:50 AM 42.8 °F 40.1 °F 35.6 °F 76% 30.18 in - NW 4.6 mph - N/A   Unknown
1:20 AM 41.0 °F - 33.8 °F 76% 30.18 in - Variable 2.3 mph - N/A   Unknown
1:50 AM 39.2 °F - 32.0 °F 75% 30.18 in - Variable 2.3 mph - N/A   Unknown
2:20 AM 39.2 °F 35.9 °F 32.0 °F 75% 30.18 in - NNW 4.6 mph - N/A   Unknown
2:50 AM 37.4 °F 34.9 °F 32.0 °F 81% 30.18 in - Variable 3.5 mph - N/A   Unknown
3:20 AM 35.6 °F - 32.0 °F 87% 30.18 in - Variable 2.3 mph - N/A   Unknown
3:50 AM 35.6 °F 31.7 °F 32.0 °F 87% 30.18 in - North 4.6 mph - N/A   Unknown
4:20 AM 35.6 °F 30.7 °F 32.0 °F 87% 30.18 in - NNW 5.8 mph - N/A   Unknown
4:50 AM 37.4 °F 32.8 °F 32.0 °F 81% 30.18 in - NNW 5.8 mph - N/A   Unknown
5:20 AM 37.4 °F 33.8 °F 32.0 °F 81% 30.18 in - NW 4.6 mph - N/A   Unknown
5:50 AM 37.4 °F 33.8 °F 32.0 °F 81% 30.18 in - NNW 4.6 mph - N/A   Unknown
6:20 AM 37.4 °F 33.8 °F 32.0 °F 81% 30.18 in - NNW 4.6 mph - N/A   Unknown
6:50 AM 35.6 °F - 30.2 °F 81% 30.18 in - Variable 2.3 mph - N/A   Unknown
7:20 AM 35.6 °F 31.7 °F 30.2 °F 81% 30.18 in - NNW 4.6 mph - N/A   Unknown
7:50 AM 35.6 °F - 32.0 °F 87% 30.18 in - Calm Calm - N/A   Clear
8:50 AM 44.6 °F - 37.4 °F 76% 30.21 in - Calm Calm - N/A   Clear
9:50 AM 48.2 °F - 37.4 °F 66% 30.21 in - Calm Calm - N/A   Clear
10:50 AM 50.0 °F - 39.2 °F 66% 30.21 in - Calm Calm - N/A   Clear
11:50 AM 51.8 °F - 39.2 °F 62% 30.18 in - Calm Calm - N/A   Clear
12:50 PM 55.4 °F - 35.6 °F 47% 30.18 in - Calm Calm - N/A   Clear
1:50 PM 57.2 °F - 33.8 °F 41% 30.15 in - Calm Calm - N/A   Clear
2:20 PM 57.2 °F - 32.0 °F 38% 30.15 in - Variable 3.5 mph - N/A   Unknown
2:50 PM 57.2 °F - 32.0 °F 38% 30.15 in - Variable 3.5 mph - N/A   Unknown
3:20 PM 57.2 °F - 32.0 °F 38% 30.15 in - Variable 2.3 mph - N/A   Unknown
3:50 PM 57.2 °F - 32.0 °F 38% 30.15 in - SE 4.6 mph - N/A   Unknown
4:20 PM 55.4 °F - 32.0 °F 41% 30.15 in - SSE 4.6 mph - N/A   Unknown
4:50 PM 55.4 °F - 32.0 °F 41% 30.15 in - Variable 2.3 mph - N/A   Unknown
5:20 PM 51.8 °F - 32.0 °F 47% 30.15 in - Variable 2.3 mph - N/A   Unknown
5:50 PM 48.2 °F - 33.8 °F 58% 30.15 in - Calm Calm - N/A   Unknown
6:20 PM 44.6 °F - 32.0 °F 61% 30.15 in - Calm Calm - N/A   Unknown
6:50 PM 42.8 °F 41.1 °F 32.0 °F 66% 30.15 in - Variable 3.5 mph - N/A   Unknown
7:20 PM 44.6 °F 43.1 °F 33.8 °F 66% 30.18 in - Variable 3.5 mph - N/A   Unknown
7:50 PM 42.8 °F - 33.8 °F 70% 30.18 in - Variable 2.3 mph - N/A   Unknown
8:20 PM 41.0 °F - 33.8 °F 76% 30.18 in - Variable 2.3 mph - N/A   Unknown
8:50 PM 41.0 °F 37.1 °F 33.8 °F 76% 30.18 in - North 5.8 mph - N/A   Unknown
9:20 PM 41.0 °F 36.4 °F 33.8 °F 76% 30.18 in - North 6.9 mph - N/A   Unknown
9:50 PM 41.0 °F 37.1 °F 35.6 °F 81% 30.18 in - NNW 5.8 mph - N/A   Unknown
10:20 PM 41.0 °F 37.1 °F 35.6 °F 81% 30.18 in - North 5.8 mph - N/A   Unknown
10:50 PM 39.2 °F 35.9 °F 35.6 °F 87% 30.18 in - North 4.6 mph - N/A   Unknown
11:20 PM 39.2 °F 37.0 °F 33.8 °F 81% 30.18 in - Variable 3.5 mph - N/A   Unknown
11:50 PM 39.2 °F 35.0 °F 35.6 °F 87% 30.18 in - North 5.8 mph - N/A   Unknown